FW5918 Nags Head NC US current weather conditions

sailwx.info

Wind from 138 at 2 knots gusting 4

Air temperature 11.7° C
Dewpoint 10.7° C

Last reported at 2020-Feb-26 19:10 UTC.
Time now 2020-Feb-26 19:56 UTC

Location: N 35°52' W 075°35'.
View on Google Maps.

See reports from other nearby stations

  
Tides and Currents Weather Stations Pressure Air Temp Water Temp Dewpoint Dewpoint Depression Visibility Wind Speed Wind Dir Waves Ship Positions
date/time (UTC)wind fromknots sea level pressurealtimeterstation pressurevisibilityair tempwater tempwave heightnotes
2020-Feb-26 19:10 138 2 gusting 4 11.7
2020-Feb-26 19:05 138 3 gusting 6 11.7
2020-Feb-26 19:00 138 3 gusting 6 11.7
2020-Feb-26 18:55 138 3 gusting 6 11.7
2020-Feb-26 18:50 139 2 gusting 6 11.7
2020-Feb-26 18:40 129 3 gusting 6 11.7
2020-Feb-26 18:35 126 3 gusting 6 11.7
2020-Feb-26 18:25 117 3 gusting 5 11.7
2020-Feb-26 18:20 103 3 gusting 5 11.7
2020-Feb-26 18:10 115 1 gusting 2 11.7
2020-Feb-26 18:05 122 0 gusting 2 11.7
2020-Feb-26 18:00 126 0 gusting 2 11.7
2020-Feb-26 17:55 126 0 gusting 3 11.7
2020-Feb-26 17:50 126 1 gusting 3 11.7
2020-Feb-26 17:45 121 2 gusting 3 11.7
2020-Feb-26 17:40 059 0 gusting 2 11.7
2020-Feb-26 17:35 059 0 gusting 2 11.7
2020-Feb-26 17:26 059 0 gusting 2 11.7
2020-Feb-26 17:20 059 0 gusting 2 11.1
2020-Feb-26 17:17 059 0 gusting 3 11.1
2020-Feb-26 17:10 059 1 gusting 3 10.6
2020-Feb-26 17:06 048 1 gusting 3 10.6
2020-Feb-26 16:56 027 0 gusting 5 10.6
2020-Feb-26 16:51 026 2 gusting 6 11.1
2020-Feb-26 16:46 020 2 gusting 6 11.7
2020-Feb-26 16:40 012 2 gusting 4 11.7
2020-Feb-26 16:36 005 2 gusting 5 11.7
2020-Feb-26 16:26 018 2 gusting 5 11.7
2020-Feb-26 16:21 028 2 gusting 5 11.7
2020-Feb-26 16:17 030 2 gusting 5 11.1
2020-Feb-26 16:10 019 1 gusting 6 11.1
2020-Feb-26 16:05 022 3 gusting 7 11.7
2020-Feb-26 16:02 360 4 gusting 7 12.8
2020-Feb-26 15:56 360 4 gusting 7 12.2
2020-Feb-26 15:50 005 5 gusting 7 12.2
2020-Feb-26 15:46 355 3 gusting 6 12.2
2020-Feb-26 15:40 360 3 gusting 6 12.2
2020-Feb-26 15:35 005 3 gusting 6 12.2
2020-Feb-26 15:26 360 4 gusting 6 12.2
2020-Feb-26 15:20 005 3 gusting 6 11.7
2020-Feb-26 15:16 022 4 gusting 7 12.2
2020-Feb-26 15:11 011 4 gusting 7 12.8
2020-Feb-26 15:05 360 0 gusting 5 13.3
2020-Feb-26 15:01 360 2 gusting 5 12.2
2020-Feb-26 14:55 013 3 gusting 6 11.7
2020-Feb-26 14:50 005 3 gusting 5 11.1
2020-Feb-26 14:47 030 2 gusting 6 11.1
2020-Feb-26 14:40 026 2 gusting 6 11.1
2020-Feb-26 14:35 036 3 gusting 6 12.2
2020-Feb-26 14:25 236 1 gusting 3 16.1
2020-Feb-26 14:20 246 1 gusting 3 16.1
2020-Feb-26 14:15 244 1 gusting 3 16.1
2020-Feb-26 14:10 219 0 gusting 2 16.1
2020-Feb-26 14:05 244 16.1
2020-Feb-26 14:01 244 0 gusting 2 16.1
2020-Feb-26 13:55 240 0 gusting 3 16.1
2020-Feb-26 13:50 249 0 gusting 3 15.6
2020-Feb-26 13:46 203 0 gusting 3 15.6
2020-Feb-26 13:40 201 1 gusting 3 15.6
2020-Feb-26 13:35 238 0 gusting 2 15.6
2020-Feb-26 13:25 236 0 gusting 3 15.6
2020-Feb-26 13:21 236 1 gusting 4 15.6
2020-Feb-26 13:16 235 2 gusting 5 15.6
2020-Feb-26 13:10 257 1 gusting 5 15.6
2020-Feb-26 13:05 269 1 gusting 5 15.0
2020-Feb-26 13:01 247 0 gusting 3 15.0
2020-Feb-26 12:55 218 0 gusting 4 15.0
2020-Feb-26 12:50 220 1 gusting 4 15.0
2020-Feb-26 12:46 207 1 gusting 4 14.4
2020-Feb-26 12:40 204 1 gusting 4 14.4
2020-Feb-26 12:35 211 1 gusting 3 14.4
2020-Feb-26 12:25 251 1 gusting 4 14.4
2020-Feb-26 12:20 259 2 gusting 4 14.4
2020-Feb-26 12:15 247 2 gusting 5 14.4
2020-Feb-26 12:10 244 2 gusting 4 14.4
2020-Feb-26 12:05 243 1 gusting 6 14.4
2020-Feb-26 12:01 244 2 gusting 6 13.9
2020-Feb-26 11:55 237 2 gusting 6 13.9
2020-Feb-26 11:50 236 2 gusting 6 13.9
2020-Feb-26 11:45 234 1 gusting 4 13.9
2020-Feb-26 11:40 243 1 gusting 4 13.9
2020-Feb-26 11:35 241 2 gusting 4 13.3
2020-Feb-26 11:25 235 1 gusting 3 13.3
2020-Feb-26 11:20 260 1 gusting 2 13.3
2020-Feb-26 11:15 260 1 gusting 6 13.3
2020-Feb-26 11:10 259 2 gusting 6 13.3
2020-Feb-26 11:05 272 2 gusting 6 13.3
2020-Feb-26 11:01 264 4 gusting 6 13.3
2020-Feb-26 10:55 258 6 gusting 6 12.8
2020-Feb-26 10:50
2020-Feb-26 10:45
2020-Feb-26 10:40
2020-Feb-26 10:25
2020-Feb-26 10:20
2020-Feb-26 10:10
2020-Feb-26 10:05
2020-Feb-26 10:00
2020-Feb-26 09:55
2020-Feb-26 09:50
2020-Feb-26 09:41 225 4 gusting 8 11.7
2020-Feb-26 09:40 225 4 gusting 8 11.7
2020-Feb-26 09:26 244 5 gusting 8 11.7
2020-Feb-26 09:20 240 3 gusting 6 11.7
2020-Feb-26 09:16 230 3 gusting 6 11.7
2020-Feb-26 09:11 210 2 gusting 6 11.7
2020-Feb-26 09:05 224 3 gusting 6 11.7
2020-Feb-26 09:03 234 3 gusting 6 11.7
2020-Feb-26 08:55 222 3 gusting 6 11.7
2020-Feb-26 08:51 228 3 gusting 6 11.7
2020-Feb-26 08:46 238 3 gusting 6 11.7
2020-Feb-26 08:40 226 2 gusting 6 11.7
2020-Feb-26 08:36 246 2 gusting 4 11.7
2020-Feb-26 08:25 244 2 gusting 4 11.7
2020-Feb-26 08:20 227 2 gusting 4 11.7
2020-Feb-26 08:17 234 1 gusting 4 11.7
2020-Feb-26 08:10 206 2 gusting 3 11.7
2020-Feb-26 08:05 212 1 gusting 3 11.7
2020-Feb-26 08:01 214 0 gusting 2 11.7
2020-Feb-26 07:56 214 0 gusting 2 11.7
2020-Feb-26 07:50 213 0 gusting 3 11.7
2020-Feb-26 07:45 205 1 gusting 4 11.7
2020-Feb-26 07:41 221 1 gusting 4 11.7
2020-Feb-26 07:35 196 1 gusting 4 11.7
2020-Feb-26 07:25 215 2 gusting 5 11.7
2020-Feb-26 07:20 234 2 gusting 5 11.7
2020-Feb-26 07:16 225 2 gusting 6 11.7
2020-Feb-26 07:10 232 2 gusting 6 11.7
2020-Feb-26 07:06 213 2 gusting 5 11.7
2020-Feb-26 07:01 227 2 gusting 5 11.7
2020-Feb-26 06:55 242 2 gusting 6 11.7
2020-Feb-26 06:50 202 2 gusting 5 12.2
2020-Feb-26 06:45 223 1 gusting 5 12.2
2020-Feb-26 06:40 219 2 gusting 5 12.2
2020-Feb-26 06:35 207 1 gusting 6 12.2
2020-Feb-26 06:25 245 2 gusting 6 12.2
2020-Feb-26 06:20 246 3 gusting 6 12.2
2020-Feb-26 06:16 205 2 gusting 4 12.2
2020-Feb-26 06:10 244 1 gusting 3 12.2
2020-Feb-26 06:05 229 1 gusting 3 12.2
2020-Feb-26 06:01 238 1 gusting 3 12.2
2020-Feb-26 05:55 242 1 gusting 3 11.7
2020-Feb-26 05:50 234 1 gusting 3 11.7
2020-Feb-26 05:46 233 1 gusting 4 11.7
2020-Feb-26 05:40 219 1 gusting 4 11.7
2020-Feb-26 05:36 213 2 gusting 4 11.7
2020-Feb-26 05:25 207 1 gusting 4 11.7
2020-Feb-26 05:20 210 1 gusting 4 11.7
2020-Feb-26 05:15 212 2 gusting 3 11.7
2020-Feb-26 05:11 213 1 gusting 4 11.7
2020-Feb-26 05:05 217 1 gusting 4 11.7
2020-Feb-26 05:00 229 0 gusting 2 11.7
2020-Feb-26 04:55 232 11.7
2020-Feb-26 04:50 237 0 gusting 3 11.7
2020-Feb-26 04:46 238 0 gusting 3 11.7
2020-Feb-26 04:40 244 2 gusting 6 12.2
2020-Feb-26 04:35 232 1 gusting 6 12.2
2020-Feb-26 04:25 240 2 gusting 4 12.2
2020-Feb-26 04:20 247 2 gusting 6 12.2
2020-Feb-26 04:17 238 3 gusting 6 12.2
2020-Feb-26 04:10 241 3 gusting 6 12.2
2020-Feb-26 04:05 240 3 gusting 6 12.2
2020-Feb-26 04:01 221 3 gusting 6 12.2
2020-Feb-26 03:55 213 3 gusting 6 12.2
2020-Feb-26 03:50 215 2 gusting 6 12.2
2020-Feb-26 03:45 224 2 gusting 4 11.7
2020-Feb-26 03:40 241 2 gusting 5 11.7
2020-Feb-26 03:35 242 2 gusting 6 11.7
2020-Feb-26 03:25 216 3 gusting 6 12.2
2020-Feb-26 03:21 205 2 gusting 5 12.2
2020-Feb-26 03:15 202 3 gusting 5 12.2
2020-Feb-26 03:10 209 2 gusting 4 12.2
2020-Feb-26 03:05 217 1 gusting 2 11.7
2020-Feb-26 03:01 238 0 gusting 1 11.7
2020-Feb-26 02:56 238 12.2
2020-Feb-26 02:50 238 12.2
2020-Feb-26 02:45 238 0 gusting 2 12.2
2020-Feb-26 02:40 238 1 gusting 3 12.2
2020-Feb-26 02:35 238 1 gusting 3 12.2
2020-Feb-26 02:25 225 1 gusting 3 11.7
2020-Feb-26 02:20 235 1 gusting 3 11.7
2020-Feb-26 02:15 236 1 gusting 3 11.7
2020-Feb-26 02:10 224 1 gusting 3 11.7
2020-Feb-26 02:05 230 1 gusting 3 11.7
2020-Feb-26 02:01 230 2 gusting 4 11.7
2020-Feb-26 01:55 222 2 gusting 4 11.7
2020-Feb-26 01:51 236 1 gusting 6 11.7
2020-Feb-26 01:45 241 2 gusting 6 11.7
2020-Feb-26 01:40 221 2 gusting 5 11.7
2020-Feb-26 01:35 233 2 gusting 4 11.7
2020-Feb-26 01:25 229 2 gusting 4 11.7
2020-Feb-26 01:20 239 1 gusting 4 11.7
2020-Feb-26 01:16 236 2 gusting 5 11.7
2020-Feb-26 01:10 222 2 gusting 5 12.2
2020-Feb-26 01:05 225 2 gusting 5 12.2
2020-Feb-26 01:01 239 2 gusting 4 12.2
2020-Feb-26 00:55 248 2 gusting 6 12.2
2020-Feb-26 00:50 229 3 gusting 6 12.2
2020-Feb-26 00:46 242 3 gusting 6 12.2
2020-Feb-26 00:40 230 2 gusting 6 12.2
2020-Feb-26 00:35 246 3 gusting 6 12.2
2020-Feb-26 00:25 230 3 gusting 7 12.2
2020-Feb-26 00:20 240 3 gusting 8 12.8
2020-Feb-26 00:17 221 3 gusting 9 12.8
2020-Feb-26 00:10 207 4 gusting 9 12.8
2020-Feb-26 00:05 203 3 gusting 9 12.8
2020-Feb-26 00:01 221 4 gusting 8 12.8
2020-Feb-25 23:55 224 3 gusting 8 12.8
2020-Feb-25 23:50 235 5 gusting 9 12.8
2020-Feb-25 23:46 215 5 gusting 9 12.8
2020-Feb-25 23:40 239 4 gusting 9 12.8
2020-Feb-25 23:35 224 5 gusting 9 12.8
2020-Feb-25 23:25 242 3 gusting 7 12.8
2020-Feb-25 23:20 208 3 gusting 6 12.8
2020-Feb-25 23:16 187 4 gusting 6 12.8
2020-Feb-25 23:10 208 2 gusting 5 12.8
2020-Feb-25 23:05 227 2 gusting 6 13.3
2020-Feb-25 23:01 237 1 gusting 5 13.3
2020-Feb-25 22:55 226 2 gusting 7 13.3
2020-Feb-25 22:50 223 3 gusting 7 13.3
2020-Feb-25 22:45 234 3 gusting 5 13.9
2020-Feb-25 22:40 223 2 gusting 6 13.9
2020-Feb-25 22:35 208 3 gusting 6 13.9
2020-Feb-25 22:25 233 2 gusting 6 13.9
2020-Feb-25 22:20 201 3 gusting 6 13.9
2020-Feb-25 22:15 208 2 gusting 6 13.9
2020-Feb-25 22:10 222 3 gusting 6 13.9
2020-Feb-25 22:05 217 2 gusting 6 13.3
2020-Feb-25 22:01 190 4 gusting 9 13.3
2020-Feb-25 21:55 206 4 gusting 9 13.3
2020-Feb-25 21:50 198 4 gusting 8 13.3
2020-Feb-25 21:45 217 5 gusting 8 13.9
2020-Feb-25 21:40 227 4 gusting 8 13.9
2020-Feb-25 21:35 211 5 gusting 8 13.9
2020-Feb-25 21:25 242 3 gusting 8 14.4
2020-Feb-25 21:20 219 4 gusting 8 14.4
2020-Feb-25 21:16 236 5 gusting 7 15.0
2020-Feb-25 21:10 218 2 gusting 8 15.0
2020-Feb-25 21:05 284 3 gusting 8 15.6
2020-Feb-25 21:00 209 3 gusting 9 15.6
2020-Feb-25 20:55 231 4 gusting 9 15.6
2020-Feb-25 20:50 211 6 gusting 9 15.6
2020-Feb-25 20:45 219 5 gusting 8 16.1
2020-Feb-25 20:40 239 3 gusting 7 16.1
2020-Feb-25 20:35 208 4 gusting 7 16.7
2020-Feb-25 20:25 223 4 gusting 10 16.1
2020-Feb-25 20:20 252 4 gusting 10 16.1
2020-Feb-25 20:16 250 5 gusting 9 16.7
2020-Feb-25 20:10 229 5 gusting 9 16.7
2020-Feb-25 20:05 229 5 gusting 10 16.7
2020-Feb-25 20:00 213 6 gusting 12 16.7
2020-Feb-25 19:55 232 6 gusting 12 16.7
2020-Feb-25 19:50 232 6 gusting 12 16.7
2020-Feb-25 19:45 241 7 gusting 12 16.7
2020-Feb-25 19:40 217 7 gusting 13 16.7
2020-Feb-25 19:35 238 6 gusting 13 16.7
2020-Feb-25 19:25 258 6 gusting 13 16.7
2020-Feb-25 19:20 251 6 gusting 13 16.1
2020-Feb-25 19:16 227 7 gusting 13 16.1
2020-Feb-25 19:10 252 8 gusting 13 15.6
2020-Feb-25 19:05 250 7 gusting 13 15.0
2020-Feb-25 19:00 229 7 gusting 13 15.0
2020-Feb-25 18:55 256 6 gusting 13 14.4
2020-Feb-25 18:50 250 6 gusting 13 14.4
2020-Feb-25 18:40 241 7 gusting 13 14.4
2020-Feb-25 18:25 241 6 gusting 13 14.4
2020-Feb-25 18:20 213 7 gusting 13 15.0
2020-Feb-25 18:10 234 7 gusting 13 15.0
2020-Feb-25 18:00 212 8 gusting 13 15.0
2020-Feb-25 17:55 212 6 gusting 13 15.0
2020-Feb-25 17:50 234 6 gusting 12 15.0
2020-Feb-25 17:40 231 6 gusting 13 15.6
2020-Feb-25 17:35 214 6 gusting 13 15.6
2020-Feb-25 17:25 159 4 gusting 9 14.4
2020-Feb-25 17:20 150 4 gusting 9 14.4
2020-Feb-25 17:15 161 6 gusting 9 14.4
2020-Feb-25 17:10 180 5 gusting 8 14.4
2020-Feb-25 17:05 166 7 gusting 9 13.3
2020-Feb-25 17:00 164 6 gusting 9 13.9
2020-Feb-25 16:55 167 6 gusting 9 13.9
2020-Feb-25 16:46 200 0 gusting 5 13.3
2020-Feb-25 16:41 205 2 gusting 5 13.9
2020-Feb-25 16:36 192 2 gusting 6 13.3
2020-Feb-25 16:26 166 3 gusting 6 13.3
2020-Feb-25 16:20 184 2 gusting 6 13.3
2020-Feb-25 16:16 194 4 gusting 6 13.3
2020-Feb-25 16:11 200 3 gusting 6 13.3
2020-Feb-25 16:05 196 3 gusting 7 13.3
2020-Feb-25 16:01 191 5 gusting 7 12.8
2020-Feb-25 15:56 180 4 gusting 8 12.8
2020-Feb-25 15:50 176 3 gusting 8 12.8
2020-Feb-25 15:46 170 5 gusting 13 11.7
2020-Feb-25 15:40 158 6 gusting 13 11.1
2020-Feb-25 15:35 176 7 gusting 13 11.1
2020-Feb-25 15:25 146 9 gusting 13 10.6
2020-Feb-25 15:20 169 9 gusting 13 10.6
2020-Feb-25 15:16 161 10 gusting 14 11.1
2020-Feb-25 15:10 153 9 gusting 11 10.6
2020-Feb-25 15:05 158 8 gusting 12 10.6
2020-Feb-25 15:02 173 8 gusting 12 10.6
2020-Feb-25 14:56 169 7 gusting 10 10.6
2020-Feb-25 14:50 163 6 gusting 8 10.6
2020-Feb-25 14:46 168 7 gusting 11 11.1
2020-Feb-25 14:41 166 8 gusting 12 11.7
2020-Feb-25 14:35 163 7 gusting 12 11.7
2020-Feb-25 14:25 156 7 gusting 10 11.1
2020-Feb-25 14:21 159 5 gusting 6 11.1
2020-Feb-25 14:16 166 5 gusting 6 11.1
2020-Feb-25 14:10 164 4 gusting 6 10.6
2020-Feb-25 14:05 154 4 gusting 6 10.6
2020-Feb-25 14:01 155 4 gusting 6 10.6
2020-Feb-25 13:55 154 4 gusting 7 10.6
2020-Feb-25 13:50 163 5 gusting 7 10.6
2020-Feb-25 13:46 168 5 gusting 8 10.6
2020-Feb-25 13:40 171 5 gusting 8 11.1
2020-Feb-25 13:35 163 5 gusting 6 10.6
2020-Feb-25 13:25 157 6 gusting 7 10.6
2020-Feb-25 13:20 159 5 gusting 6 11.1
2020-Feb-25 13:16 163 4 gusting 7 11.7
2020-Feb-25 13:10 179 3 gusting 6 11.7
2020-Feb-25 13:05 170 5 gusting 7 11.7
2020-Feb-25 13:01 167 6 gusting 8 11.7
2020-Feb-25 12:55 168 5 gusting 7 11.7
2020-Feb-25 12:50 178 4 gusting 9 11.1
2020-Feb-25 12:46 167 6 gusting 9 11.1
2020-Feb-25 12:40 161 6 gusting 9 12.2
2020-Feb-25 12:35 167 5 gusting 8 12.8
2020-Feb-25 12:25 217 4 gusting 8 12.8
2020-Feb-25 12:20 189 4 gusting 8 12.8
2020-Feb-25 12:15 191 6 gusting 8 12.8
2020-Feb-25 12:10 196 3 gusting 7 12.2
2020-Feb-25 12:05 175 4 gusting 8 12.2
2020-Feb-25 12:00 173 5 gusting 9 12.2
2020-Feb-25 11:55 194 4 gusting 9 12.2
2020-Feb-25 11:50 231 6 gusting 10 12.2
2020-Feb-25 11:45 259 6 gusting 10 12.2
2020-Feb-25 11:40 187 5 gusting 8 11.7
2020-Feb-25 11:35 259 4 gusting 8 11.7
2020-Feb-25 11:25 225 4 gusting 7 11.7
2020-Feb-25 11:20 232 5 gusting 8 11.1
2020-Feb-25 11:16 254 4 gusting 10 11.1
2020-Feb-25 11:10 250 5 gusting 10 11.1
2020-Feb-25 11:05 215 6 gusting 10 11.1
2020-Feb-25 11:00 252 5 gusting 9 11.7
2020-Feb-25 10:55 248 4 gusting 9 11.7
2020-Feb-25 10:50 246 5 gusting 10 11.1
2020-Feb-25 10:46 225 6 gusting 10 11.1
2020-Feb-25 10:40 247 6 gusting 10 11.1
2020-Feb-25 10:35 236 6 gusting 12 11.1
2020-Feb-25 10:25 239 6 gusting 12 11.7
2020-Feb-25 10:20 216 6 gusting 12 11.7
2020-Feb-25 10:15 248 6 gusting 12 11.7
2020-Feb-25 10:10 215 6 gusting 13 11.7
2020-Feb-25 10:05 227 6 gusting 14 11.7
2020-Feb-25 10:00 250 6 gusting 14 11.7
2020-Feb-25 09:55 220 7 gusting 14 12.2
2020-Feb-25 09:50 247 8 gusting 15 12.2
2020-Feb-25 09:40 216 7 gusting 15 11.7
2020-Feb-25 09:35 215 7 gusting 15 11.7
2020-Feb-25 09:25 209 7 gusting 13 11.7
2020-Feb-25 09:20 182 7 gusting 13 11.7
2020-Feb-25 09:15 230 6 gusting 12 11.7
2020-Feb-25 09:10 211 6 gusting 12 11.7
2020-Feb-25 09:00 215 6 gusting 12 11.7
2020-Feb-25 08:55 252 6 gusting 12 11.7
2020-Feb-25 08:45 208 6 gusting 13 11.7
2020-Feb-25 08:40 237 6 gusting 11 11.7
2020-Feb-25 08:35 216 6 gusting 13 11.7
2020-Feb-25 08:25 240 6 gusting 13 11.7
2020-Feb-25 08:20 208 7 gusting 13 11.7
2020-Feb-25 08:10 229 7 gusting 13 11.7
2020-Feb-25 08:05 148 7 gusting 14 11.7
2020-Feb-25 07:55 213 8 gusting 13 11.7
2020-Feb-25 07:50 200 8 gusting 13 11.7
2020-Feb-25 07:45 204 7 gusting 13 11.7
2020-Feb-25 07:40 205 6 gusting 12 11.1
2020-Feb-25 07:35 202 6 gusting 9 11.1
2020-Feb-25 07:30 200 5 gusting 8 10.6
2020-Feb-25 07:25 195 4 gusting 7 10.6
2020-Feb-25 07:20 192 4 gusting 7 10.6
2020-Feb-25 07:15 230 4 gusting 7 10.6
2020-Feb-25 07:10 215 3 gusting 8 11.1
2020-Feb-25 07:05 246 2 gusting 8 11.1
2020-Feb-25 06:55 192 3 gusting 6 11.1
2020-Feb-25 06:46 234 3 gusting 6 11.7
2020-Feb-25 06:41 240 4 gusting 6 11.7
2020-Feb-25 06:36 201 1 gusting 6 11.7
2020-Feb-25 06:31 200 4 gusting 8 11.7
2020-Feb-25 06:25 234 4 gusting 8 11.7
2020-Feb-25 06:21 212 5 gusting 8 11.7
2020-Feb-25 06:16 207 4 gusting 8 11.7
2020-Feb-25 06:10 220 4 gusting 8 12.2
2020-Feb-25 06:05 251 4 gusting 8 12.2
2020-Feb-25 06:01 200 5 gusting 8 12.2
2020-Feb-25 05:56 216 5 gusting 9 12.2
2020-Feb-25 05:50 205 5 gusting 9 12.2
2020-Feb-25 05:46 175 5 gusting 11 12.2
2020-Feb-25 05:41 234 5 gusting 11 12.2
2020-Feb-25 05:35 205 6 gusting 11 12.2
2020-Feb-25 05:31 200 4 gusting 12 12.2
2020-Feb-25 05:25 159 6 gusting 12 12.2
2020-Feb-25 05:21 169 6 gusting 11 12.2
2020-Feb-25 05:17 171 6 gusting 10 12.2
2020-Feb-25 05:10 188 5 gusting 9 11.7
2020-Feb-25 05:05 175 4 gusting 8 11.1
2020-Feb-25 05:01 158 5 gusting 8 10.6
2020-Feb-25 04:55 175 5 gusting 9 11.7
2020-Feb-25 04:50 154 4 gusting 8 12.2
2020-Feb-25 04:48 149 4 gusting 8 12.2
2020-Feb-25 04:40 172 4 gusting 12 12.2
2020-Feb-25 04:35 180 7 gusting 12 12.2
2020-Feb-25 04:31 182 5 gusting 10 12.2
2020-Feb-25 04:25 155 5 gusting 9 12.2
2020-Feb-25 04:21 186 5 gusting 9 12.2
2020-Feb-25 04:16 180 5 gusting 9 12.2
2020-Feb-25 04:10 194 4 gusting 12 12.2
2020-Feb-25 04:05 200 5 gusting 12 12.2
2020-Feb-25 04:00 211 2 gusting 7 11.7
2020-Feb-25 03:55 177 2 gusting 7 11.7
2020-Feb-25 03:50 182 3 gusting 10 11.7
2020-Feb-25 03:46 207 6 gusting 10 11.1
2020-Feb-25 03:40 195 5 gusting 10 11.1
2020-Feb-25 03:35 186 6 gusting 13 11.1
2020-Feb-25 03:31 221 6 gusting 13 11.1
2020-Feb-25 03:25 192 6 gusting 13 11.1
2020-Feb-25 03:20 217 6 gusting 12 11.1
2020-Feb-25 03:16 231 7 gusting 12 11.1
2020-Feb-25 03:10 218 5 gusting 14 11.1
2020-Feb-25 03:05 205 6 gusting 14 11.1
2020-Feb-25 03:01 209 7 gusting 14 11.1
2020-Feb-25 02:55 213 7 gusting 14 11.1
2020-Feb-25 02:50 185 7 gusting 14 11.1
2020-Feb-25 02:46 223 6 gusting 15 11.1
2020-Feb-25 02:40 225 7 gusting 15 11.7
2020-Feb-25 02:35 217 7 gusting 15 11.7
2020-Feb-25 02:30 184 8 gusting 14 11.7
2020-Feb-25 02:25 188 6 gusting 14 11.7
2020-Feb-25 02:20 195 7 gusting 13 11.7
2020-Feb-25 02:16 214 6 gusting 13 11.7
2020-Feb-25 02:10 228 6 gusting 11 11.1
2020-Feb-25 02:05 202 6 gusting 13 11.1
2020-Feb-25 02:00 186 5 gusting 13 10.0
2020-Feb-25 01:56 200 6 gusting 13 10.0
2020-Feb-25 01:50 182 6 gusting 12 10.0
2020-Feb-25 01:46 166 6 gusting 12 9.4
2020-Feb-25 01:40 165 6 gusting 13 9.4
2020-Feb-25 01:35 188 6 gusting 13 8.9
2020-Feb-25 01:31 178 6 gusting 10 8.9
2020-Feb-25 01:25 159 6 gusting 10 8.9
2020-Feb-25 01:20 165 6 gusting 10 8.3
2020-Feb-25 01:16 167 6 gusting 12 8.3
2020-Feb-25 01:10 158 8 gusting 12 8.3
2020-Feb-25 01:05 158 8 gusting 12 8.3
2020-Feb-25 01:00 165 8 gusting 12 8.3
2020-Feb-25 00:50 161 6 gusting 10 8.3
2020-Feb-25 00:45 167 6 gusting 8 8.3
2020-Feb-25 00:40 179 4 gusting 8 8.3
2020-Feb-25 00:35 163 6 gusting 9 8.3
2020-Feb-25 00:30 160 6 gusting 9 8.3
2020-Feb-25 00:25 168 6 gusting 9 8.3
2020-Feb-25 00:15 161 4 gusting 9 8.3
2020-Feb-25 00:10 158 6 gusting 8 8.3
2020-Feb-25 00:05 163 6 gusting 8 8.3
2020-Feb-24 23:55 162 5 gusting 7 8.3
2020-Feb-24 23:50 169 3 gusting 8 8.3
2020-Feb-24 23:40 163 5 gusting 7 8.3
2020-Feb-24 23:30 159 5 gusting 7 8.3
2020-Feb-24 23:25 165 6 gusting 8 8.3
2020-Feb-24 23:15 171 6 gusting 9 8.3
2020-Feb-24 23:10 185 5 gusting 9 8.3
2020-Feb-24 23:01 142 6 gusting 12 8.3
2020-Feb-24 22:55 149 5 gusting 11 8.3
2020-Feb-24 22:50 178 6 gusting 11 8.3
2020-Feb-24 22:40 166 4 gusting 8 8.9
2020-Feb-24 22:30 150 5 gusting 8 8.9
2020-Feb-24 22:25 165 6 gusting 8 8.9
2020-Feb-24 22:20 156 3 gusting 9 8.9
2020-Feb-24 22:10 179 5 gusting 8 8.9
2020-Feb-24 22:05 170 4 gusting 10 8.9
2020-Feb-24 22:00 160 5 gusting 9 8.9
2020-Feb-24 21:55 152 5 gusting 8 8.9
2020-Feb-24 21:50 157 5 gusting 9 8.9
2020-Feb-24 21:45 178 3 gusting 6 8.9
2020-Feb-24 21:40 170 2 gusting 6 8.9
2020-Feb-24 21:35 181 3 gusting 5 8.9
2020-Feb-24 21:30 172 1 gusting 4 8.9
2020-Feb-24 21:20 182 2 gusting 6 8.9
2020-Feb-24 21:15 172 2 gusting 6 8.9
2020-Feb-24 21:10 162 3 gusting 6 8.9
2020-Feb-24 21:05 160 3 gusting 7 8.9
2020-Feb-24 21:01 163 6 gusting 8 8.3
2020-Feb-24 20:55 165 6 gusting 8 8.3
2020-Feb-24 20:50 160 4 gusting 10 8.3
2020-Feb-24 20:40 153 7 gusting 10 8.3
2020-Feb-24 20:30 167 9 gusting 13 8.3
2020-Feb-24 20:20 161 8 gusting 12 8.3
2020-Feb-24 20:10 152 7 gusting 10 8.3
2020-Feb-24 20:05 146 6 gusting 9 8.9
2020-Feb-24 20:00 159 6 gusting 8 8.9
2020-Feb-24 19:55 165 6 gusting 8 8.9
2020-Feb-24 19:50 153 6 gusting 8 8.9
2020-Feb-24 19:40 143 6 gusting 9 8.9
2020-Feb-24 19:35 148 6 gusting 9 8.9
2020-Feb-24 19:25 151 6 gusting 13 8.9
2020-Feb-24 19:20 165 7 gusting 13 8.9
2020-Feb-24 19:10 161 7 gusting 11 8.9
2020-Feb-24 19:05 159 7 gusting 12 9.4
2020-Feb-24 19:00 161 7 gusting 12 8.9